Theta_e
314 314 314 313 313 313 313 313 312 311 310 315 315 321 323 324 320 333 337 337 334 323 317 322 320 317 318 322 319 318 317 315 318 316 316 315 314 314 312 313 312 312 310 312 309 310 307 308 308 309 309 311 312 315 315 316 314 314 311 312 312 326 307 303 305 309 311 314 316 316 315 314 311 312 314 313 310 311 309 309 310 307 309 305 304 305 310
314 313 313 313 313 313 313 313 312 311 310 313 316 319 321 321 320 325 335 337 333 322 313 314 315 315 319 317 318 321 319 319 317 317 316 317 313 314 314 314 314 313 314 313 310 311 305 309 309 309 311 310 316 316 316 315 313 312 312 309 313 306 308 305 302 303 305 307 311 311 314 313 310 310 313 313 313 314 314 313 314 308 308 307 307 301 308
314 313 313 313 313 313 313 313 312 311 310 312 316 315 320 321 325 320 328 331 328 316 320 318 316 314 316 317 315 317 319 321 319 320 318 319 320 316 313 317 315 314 314 313 314 314 310 308 311 311 311 311 316 316 316 316 314 315 316 329 315 308 308 305 300 298 297 297 299 302 304 307 310 312 312 314 313 312 310 306 309 302 312 310 309 308 316
313 313 313 312 313 313 313 312 312 311 310 310 317 319 319 322 315 320 318 324 323 322 324 320 318 318 322 317 318 317 317 319 319 320 320 319 319 318 317 317 318 315 312 312 311 311 313 310 310 310 310 312 314 316 315 314 314 326 343 326 317 309 310 309 306 304 303 307 308 312 312 311 307 309 311 311 312 313 313 310 307 305 311 310 313 311 312
313 313 313 313 313 313 312 312 312 311 310 310 313 320 322 324 318 318 316 321 319 317 320 319 319 317 320 315 319 315 318 317 319 320 317 320 318 319 317 317 314 313 314 313 312 313 311 313 313 311 311 313 314 316 315 314 318 338 323 324 315 314 307 309 309 308 308 310 310 312 313 309 310 309 309 311 311 312 310 308 306 317 308 307 317 315 311
313 313 313 313 314 314 313 311 310 310 310 310 319 319 324 317 321 323 323 314 315 314 318 321 319 321 320 318 318 315 316 315 315 319 320 321 324 316 316 315 318 313 314 312 309 311 311 312 310 314 313 313 314 313 315 313 327 320 314 317 313 310 306 309 309 308 309 310 310 312 311 310 310 311 311 310 311 311 309 310 311 311 307 307 315 316 313
313 313 313 313 313 314 314 313 311 309 308 310 323 313 318 320 319 320 325 316 319 319 320 321 320 318 319 318 320 317 320 315 322 320 316 319 318 321 314 313 316 319 317 314 313 313 309 310 314 314 313 314 314 311 312 314 316 315 313 314 320 313 307 309 309 308 309 309 310 311 310 311 311 310 311 311 311 310 310 310 312 311 311 316 315 316 315
313 313 313 313 313 313 314 313 312 310 309 318 323 316 312 312 315 315 319 318 316 319 319 319 319 315 318 313 317 318 318 319 319 321 318 316 319 325 316 316 316 319 323 317 314 314 315 314 312 316 316 314 315 314 313 311 314 315 312 313 316 310 306 313 310 308 307 309 311 310 310 310 309 311 311 311 312 311 312 311 311 313 312 317 313 313 313
313 313 313 313 313 313 314 314 312 311 311 320 319 318 317 316 320 320 313 313 317 322 321 317 316 314 318 314 319 319 319 319 319 318 322 322 318 319 315 316 316 319 319 321 317 318 318 317 317 319 318 313 318 314 315 316 312 312 312 312 313 311 307 311 310 305 306 309 309 309 310 310 309 309 311 311 310 309 311 310 312 311 310 312 311 311 313
313 313 313 313 313 313 313 314 313 313 314 319 318 315 320 319 320 322 319 313 320 316 318 317 315 312 319 319 320 318 319 321 321 317 322 323 322 322 319 319 317 317 319 317 319 320 319 320 320 321 321 322 321 320 319 318 315 312 311 314 310 311 309 307 307 304 304 309 310 309 309 308 305 307 310 311 312 313 313 314 315 314 315 311 309 310 321
312 312 313 313 313 313 313 314 313 313 315 315 315 316 317 313 313 317 320 314 317 317 315 315 314 320 320 322 320 322 320 320 321 315 319 320 323 324 322 319 319 316 317 320 326 325 323 323 323 322 322 321 321 321 320 319 318 317 314 311 313 316 310 307 311 305 306 308 309 310 306 299 302 316 318 318 314 312 311 312 316 319 316 314 321 323 326
312 312 313 313 313 312 313 313 314 313 314 316 318 318 319 319 318 319 317 311 313 320 317 313 314 318 318 320 320 319 318 319 319 321 318 321 321 323 321 323 320 319 323 328 326 325 325 324 322 321 320 319 319 320 319 318 318 320 318 314 312 311 311 308 313 306 305 309 309 304 299 301 315 318 318 320 317 318 314 315 318 320 323 320 322 322 324
312 312 313 313 312 312 312 313 313 313 314 315 317 317 320 320 317 316 316 313 311 316 315 314 317 318 319 319 317 317 319 320 321 321 321 320 321 322 324 322 319 321 327 325 325 323 318 316 316 316 317 319 319 320 318 317 316 318 317 317 314 311 310 310 310 309 311 308 306 298 302 314 316 318 319 321 319 317 316 313 318 322 324 324 323 324 325
313 312 312 312 312 312 312 313 313 314 314 313 314 318 320 319 315 315 313 311 310 315 315 314 317 317 317 317 316 315 317 317 319 321 319 322 320 321 324 326 326 327 327 327 324 322 316 315 310 310 310 312 314 313 316 317 317 316 315 316 316 314 314 310 307 312 304 306 305 304 314 312 313 314 316 318 315 316 315 310 315 322 325 324 323 324 326
313 313 312 312 312 312 312 312 313 314 314 312 316 319 321 319 317 316 316 315 309 312 314 311 313 314 314 315 315 311 312 315 318 318 322 324 323 324 325 327 329 328 328 324 320 319 314 313 308 308 310 308 304 306 312 310 316 317 317 316 317 320 311 314 308 308 309 305 305 306 304 301 310 314 320 322 320 320 321 318 313 322 326 329 325 322 325
313 313 312 312 312 312 312 312 313 314 314 313 315 317 320 320 320 319 316 312 312 306 315 316 316 313 311 312 315 314 312 316 317 317 318 320 321 323 327 330 330 329 326 323 322 317 314 309 307 308 305 308 310 309 307 311 309 315 316 317 316 316 316 317 311 308 309 307 304 303 301 306 314 315 318 322 322 319 320 315 311 320 326 328 328 326 326
313 313 313 312 313 313 312 313 313 313 313 312 312 315 318 322 318 315 314 314 314 309 317 318 316 314 314 316 319 317 317 316 316 313 313 317 320 322 326 328 330 328 324 321 319 315 312 311 310 310 312 313 309 309 311 308 307 307 313 314 314 312 311 311 308 306 309 308 305 304 309 309 314 317 320 322 323 324 317 304 307 320 326 327 327 327 328
314 314 313 313 312 313 312 312 312 313 313 312 312 314 316 322 320 319 315 313 310 309 317 316 312 309 309 311 310 315 317 317 316 316 313 316 318 322 321 325 322 326 327 317 318 312 311 311 309 311 309 316 315 314 305 310 308 309 308 312 309 309 310 310 306 307 307 307 305 308 310 316 317 317 322 322 324 319 308 303 315 324 324 326 328 328 330
314 314 313 313 312 312 312 312 312 312 312 312 313 315 318 320 320 318 314 312 311 308 315 315 314 312 315 317 314 315 317 317 317 313 316 315 318 320 323 324 325 317 323 318 318 314 312 312 316 314 311 313 314 312 316 310 310 313 315 309 311 309 310 310 310 307 306 308 305 306 311 317 320 322 323 323 319 308 308 323 333 334 327 328 329 328 330
314 314 313 313 313 312 311 311 312 312 312 313 312 311 314 319 320 318 313 307 309 307 309 310 314 311 313 311 310 311 313 315 317 314 315 312 320 321 319 314 324 324 321 322 313 317 313 311 315 316 311 313 315 318 313 313 315 313 313 315 310 312 309 307 306 310 309 310 306 305 299 319 319 320 322 322 313 321 330 331 330 329 326 328 328 329 331
314 314 314 314 314 312 311 311 311 312 312 313 312 311 312 320 320 319 318 314 309 305 308 317 314 311 311 310 311 311 310 308 309 309 313 314 320 318 312 313 317 320 317 319 313 315 317 313 317 315 316 314 322 317 312 314 314 318 318 317 314 318 309 311 314 318 306 305 303 304 314 321 322 321 317 325 330 332 334 328 325 330 329 327 328 332 332
315 315 314 314 314 313 312 312 311 311 312 313 313 313 310 317 320 317 317 316 309 306 309 313 314 313 315 315 313 312 310 309 311 312 310 311 318 316 317 319 320 322 323 323 319 318 320 319 319 316 313 314 319 313 318 311 308 315 320 319 309 322 317 320 310 319 317 313 315 321 323 322 323 329 329 330 332 332 330 329 330 329 328 335 330 329 335
315 315 315 315 314 314 313 312 312 311 311 312 312 312 310 313 315 319 316 311 314 314 315 314 316 317 318 319 320 320 319 318 316 315 315 312 311 316 317 320 320 324 326 326 320 318 320 320 317 319 316 317 315 313 315 314 311 315 312 321 318 323 322 327 320 316 321 321 327 324 325 324 325 328 330 328 328 329 330 328 328 330 338 336 336 335 332
315 315 315 315 315 314 313 312 312 312 311 313 312 311 310 312 314 315 313 312 310 308 312 316 313 311 314 315 322 323 322 321 320 320 320 318 310 312 319 322 322 323 324 325 327 319 319 319 319 322 314 319 319 314 310 309 313 319 317 315 320 322 325 321 317 322 314 307 325 319 322 324 325 326 328 331 329 329 330 331 332 331 332 334 336 336 336
315 315 315 315 315 315 313 312 312 311 313 312 312 313 315 314 317 316 311 304 307 305 300 304 306 312 315 317 319 318 318 320 321 324 323 320 316 312 312 318 321 319 320 324 328 323 322 317 318 319 314 324 322 314 319 315 315 323 315 317 318 317 326 318 318 317 316 316 325 324 323 324 327 326 326 327 329 329 332 332 336 334 334 337 337 337 334
315 315 315 315 315 315 314 313 312 311 312 312 311 309 310 312 316 318 315 314 311 309 303 302 308 316 317 316 315 317 320 320 320 321 323 323 322 320 318 320 322 326 326 325 324 320 319 320 321 321 316 319 326 317 317 321 319 323 318 317 322 324 328 316 320 318 318 320 324 328 330 322 325 327 327 329 332 330 333 338 338 336 335 336 334 334 333
314 314 314 315 315 315 314 313 312 311 311 313 311 313 313 314 316 314 311 310 305 302 304 302 308 314 316 311 315 317 318 316 314 313 314 316 320 323 323 322 321 323 322 322 323 322 321 320 319 317 320 320 327 323 322 321 320 318 317 321 326 321 316 320 319 316 314 314 322 325 321 318 324 326 327 331 336 337 340 338 337 337 337 338 336 334 335
314 314 314 315 315 315 315 313 312 311 312 312 311 313 314 313 313 314 315 314 309 301 302 302 303 308 313 308 311 312 314 314 313 311 310 311 314 316 317 318 320 318 319 319 317 318 318 316 316 322 322 325 320 319 323 327 323 319 318 321 324 320 322 321 316 316 315 323 322 333 335 328 338 330 328 330 333 337 337 337 334 338 341 339 337 335 337
314 314 314 314 315 315 314 314 312 312 312 312 311 310 311 314 315 315 314 316 315 308 306 305 308 306 300 305 314 314 316 316 315 315 313 311 311 312 314 316 316 317 318 319 318 318 317 319 323 320 322 328 321 318 318 313 314 313 319 326 325 326 326 323 323 324 325 326 326 331 331 330 331 328 331 331 336 337 334 336 336 337 339 339 337 337 335
314 314 314 314 315 315 314 314 313 311 312 311 310 309 306 309 316 316 318 317 315 311 303 301 298 303 312 311 310 313 313 315 314 313 312 312 313 313 313 314 315 317 317 317 317 315 319 320 322 324 325 330 320 321 315 317 314 317 323 325 327 328 329 327 327 323 322 328 331 332 333 333 331 334 336 332 334 338 337 335 337 336 336 337 338 339 338
314 314 314 315 314 315 315 314 313 313 311 309 308 302 302 301 311 318 315 317 318 312 306 305 301 307 305 311 311 309 309 309 309 309 309 310 311 313 316 317 317 317 314 317 317 317 318 316 318 320 325 325 324 319 316 315 315 319 323 326 329 327 326 327 330 332 331 330 331 339 338 337 331 332 331 333 333 335 340 339 341 344 338 337 337 339 337
313 314 314 314 314 314 314 314 313 312 310 308 304 305 308 306 309 312 314 316 318 311 306 301 302 303 304 307 311 314 312 311 310 309 308 309 308 312 313 315 315 318 318 315 318 320 318 320 318 319 320 326 325 320 319 317 314 317 324 324 327 331 335 337 336 337 333 331 332 333 331 330 334 331 328 334 334 333 338 338 337 342 340 334 335 336 335
313 314 314 314 314 314 314 314 313 312 311 310 314 312 313 314 314 314 314 316 314 309 310 304 299 302 301 305 309 311 314 312 311 309 306 310 307 310 309 313 314 314 326 318 315 314 320 320 322 319 322 329 322 322 319 316 319 324 325 326 326 332 337 337 336 336 336 334 337 335 328 327 331 334 335 335 334 333 336 336 336 341 338 335 336 333 335
313 313 313 314 314 314 314 313 313 313 312 308 305 305 310 314 315 314 314 315 310 310 310 304 300 299 300 310 304 308 312 307 308 310 306 310 311 310 309 310 312 310 313 311 316 317 319 319 318 319 324 321 323 319 316 319 322 323 324 325 331 333 335 333 332 332 334 335 337 338 338 339 336 338 338 336 333 335 337 339 339 337 338 335 334 335 339
313 313 313 314 313 314 314 313 311 308 304 305 306 310 315 317 315 316 314 311 303 303 302 302 303 298 297 300 300 305 313 308 306 310 306 310 313 309 310 308 311 308 311 317 312 313 314 317 320 316 313 320 318 315 317 320 322 323 326 325 335 334 330 331 329 333 333 331 335 337 333 335 336 332 331 331 332 335 338 338 336 335 334 332 333 336 338
313 313 313 313 313 313 313 311 309 306 303 303 306 317 318 317 315 316 316 315 309 302 301 301 302 298 299 296 297 306 312 307 309 309 311 313 310 312 311 309 305 310 319 313 309 312 311 320 318 312 318 314 314 317 321 325 324 325 326 329 335 333 333 332 332 333 332 335 336 338 333 331 332 337 338 333 333 337 338 337 337 336 334 333 334 337 337
313 312 313 312 312 309 305 305 308 307 307 311 315 317 318 316 316 316 314 310 312 312 302 301 299 300 302 301 305 308 309 302 310 306 309 308 309 314 310 308 305 311 311 310 311 310 315 322 316 313 314 312 317 324 329 328 328 326 328 331 338 336 334 332 333 334 332 332 332 333 335 338 337 337 334 336 340 337 339 338 336 337 334 333 333 333 334
312 312 311 307 305 300 300 302 305 310 316 314 317 312 309 307 303 305 307 302 305 307 304 302 297 302 306 303 299 310 308 305 312 307 306 309 308 310 314 311 310 310 303 308 312 318 318 317 314 311 313 321 328 326 326 332 330 330 331 334 337 335 335 332 334 335 332 332 334 337 334 336 336 335 332 332 337 333 335 341 345 341 341 337 339 338 336
311 310 306 307 302 299 300 303 312 317 312 313 311 304 302 305 301 298 299 303 304 299 302 300 298 301 300 300 302 311 307 303 303 307 304 315 309 306 311 305 311 310 306 306 311 319 309 310 313 313 311 318 320 325 329 332 331 329 332 332 335 337 332 332 334 340 339 338 342 341 335 335 335 334 338 338 336 331 334 337 338 340 344 346 344 342 339
307 303 302 302 300 304 311 314 317 310 308 302 304 302 297 302 297 294 302 297 296 300 302 296 302 302 303 300 300 301 311 306 301 302 306 308 315 306 313 311 314 308 302 302 308 317 309 306 311 310 309 316 319 330 330 326 331 331 333 333 332 336 341 341 338 339 341 345 339 336 336 335 335 335 336 337 335 337 336 339 342 343 345 347 345 344 345
306 305 304 301 305 309 311 312 311 307 302 299 299 299 297 294 299 301 298 294 294 297 304 301 303 301 304 303 303 299 309 311 311 311 308 303 315 313 309 306 316 306 304 303 311 313 311 309 309 308 310 320 324 328 325 328 330 329 331 334 332 334 338 336 337 335 341 343 340 335 333 334 336 337 336 337 336 337 337 338 340 342 346 347 350 348 348
309 307 309 313 313 312 310 309 304 301 300 302 294 291 294 295 299 298 298 292 293 298 301 302 298 300 300 303 303 305 306 310 310 309 307 302 310 307 306 308 311 305 302 309 315 311 309 306 307 308 315 326 329 329 328 328 333 331 330 337 335 336 337 338 339 339 339 345 341 338 335 335 334 333 335 341 346 347 348 346 347 348 347 351 350 349 348
313 314 313 309 307 305 308 297 301 299 289 290 289 286 292 291 293 292 294 299 303 300 302 306 305 307 307 307 304 307 306 311 306 305 304 303 312 310 306 307 305 301 306 315 310 307 305 304 305 311 320 327 328 330 332 331 332 332 335 338 339 340 341 342 340 340 340 343 348 344 339 337 338 340 342 347 347 346 348 347 349 347 348 349 351 351 351
311 311 306 305 299 300 301 286 300 294 289 291 288 284 290 290 293 295 293 295 300 298 302 300 302 301 299 305 302 304 305 308 308 307 305 308 305 304 304 301 303 310 313 308 307 302 305 309 311 315 324 323 321 329 331 333 335 336 337 337 337 337 339 340 340 335 337 347 352 352 346 345 348 345 348 348 343 347 348 349 351 349 350 353 351 352 352
303 300 300 295 289 295 294 284 298 291 285 289 293 292 293 290 293 295 294 301 300 299 304 303 304 303 300 306 305 305 305 302 308 302 300 305 302 303 301 301 308 308 304 301 304 305 307 306 314 318 321 325 326 331 336 337 337 338 337 335 336 340 340 338 340 341 339 346 351 348 348 351 351 349 350 348 347 351 352 350 351 349 350 350 352 352 353
299 293 293 286 284 290 289 286 288 286 294 296 294 296 295 296 296 296 301 303 300 301 301 302 302 304 302 306 301 302 304 304 301 301 303 304 299 298 305 310 308 303 302 302 300 300 304 308 313 317 319 324 328 334 332 338 338 336 335 334 338 340 340 341 342 344 345 347 352 356 356 355 349 349 350 352 358 356 354 356 351 351 352 351 351 351 351
299 300 297 294 287 289 295 288 290 293 296 297 298 299 299 301 302 302 303 303 301 303 302 304 303 304 301 303 304 303 305 306 300 304 304 298 298 302 308 302 298 299 297 298 301 303 306 311 314 322 327 324 329 331 333 337 332 334 338 339 341 338 340 344 344 344 346 351 353 354 356 355 353 353 352 351 356 359 355 353 353 354 352 351 353 351 351
291 300 298 286 285 290 289 293 299 299 300 300 300 302 303 304 302 301 303 304 304 304 302 304 302 304 302 306 304 301 302 305 301 303 304 302 304 300 299 299 298 300 301 300 302 308 310 313 317 319 325 325 327 329 328 333 333 334 334 335 335 335 333 334 341 346 346 345 343 342 342 350 356 353 350 351 350 354 355 352 354 356 356 355 352 350 351
302 298 291 291 296 296 296 298 298 296 298 300 301 303 300 299 300 302 305 306 303 302 304 302 302 302 298 304 301 300 298 307 297 298 303 301 297 294 295 293 296 295 302 305 306 310 312 316 325 328 333 327 325 324 327 328 332 331 328 328 333 335 333 337 341 345 343 338 334 334 335 335 341 353 351 353 352 354 355 355 357 357 356 354 350 349 352
298 296 300 298 296 298 300 301 298 295 298 300 302 299 300 302 301 304 307 305 306 305 305 303 304 300 299 302 296 298 298 303 301 301 299 297 298 299 297 294 297 298 302 307 308 312 316 326 325 329 333 332 334 332 328 326 330 334 332 332 332 335 334 334 340 342 343 336 335 335 333 334 333 342 353 353 355 356 355 356 356 357 357 353 349 349 352
302 299 297 301 296 296 298 291 292 294 295 297 299 300 303 301 302 303 308 306 306 304 302 298 299 298 294 297 296 290 295 303 301 299 298 297 300 299 297 296 299 303 305 309 312 315 317 327 326 325 329 331 332 334 335 338 332 332 332 330 334 333 336 332 334 343 346 336 335 334 335 336 335 343 355 360 359 356 353 354 356 357 356 352 350 351 352
294 292 295 299 301 302 301 300 300 298 297 300 299 302 302 301 304 305 309 306 304 299 298 301 299 296 292 292 296 300 306 301 297 299 297 300 304 299 299 301 303 306 307 309 313 315 316 320 331 332 333 334 334 333 336 339 339 339 332 328 329 330 334 332 334 342 343 344 343 339 339 344 351 356 360 358 355 353 350 349 353 356 354 352 352 354 353
Wind_Speed
22 22 23 24 25 25 26 27 26 26 28 17 13 12 6 6 7 9 10 11 10 6 7 7 7 9 8 15 12 6 4 8 5 7 3 5 3 2 6 9 10 7 5 8 9 8 9 8 11 13 10 7 1 13 6 11 13 6 7 9 10 10 9 9 11 12 16 6 8 12 12 13 15 13 11 10 10 7 8 7 5 6 4 6 6 5 3
22 22 23 24 25 25 26 27 26 24 21 14 12 9 7 8 10 3 9 9 8 8 6 4 6 7 13 3 9 4 7 7 6 6 5 5 5 5 4 1 1 11 3 8 3 11 8 13 15 7 9 3 15 8 3 8 8 7 7 8 10 9 9 11 8 7 7 10 10 11 13 11 10 10 9 11 17 11 5 6 5 5 3 5 7 2 4
22 22 22 23 24 25 26 27 27 24 19 15 9 7 8 9 7 8 6 9 8 9 7 8 3 5 13 13 3 10 10 11 12 9 1 3 3 5 3 3 2 3 4 6 2 5 8 4 8 10 5 8 10 14 5 11 9 11 7 13 7 9 6 10 9 9 9 9 9 9 11 10 7 8 13 13 13 12 10 6 1 4 7 8 5 5 5
22 22 22 23 24 25 26 27 29 27 21 17 8 6 6 4 7 4 7 8 7 10 10 9 7 6 11 9 5 5 9 10 10 8 4 5 2 8 9 6 8 2 4 6 3 5 4 9 4 6 4 11 8 9 4 5 10 7 9 5 6 7 8 9 11 10 7 5 9 5 2 2 6 9 12 14 11 10 9 8 8 7 6 7 9 12 8
21 22 23 22 24 25 26 27 29 30 28 17 7 5 5 7 6 7 7 3 8 8 7 10 9 3 3 3 5 2 8 10 13 5 10 10 5 12 7 6 9 12 12 12 7 8 6 6 8 9 4 5 10 9 6 6 7 8 8 6 6 3 8 10 11 15 16 14 9 8 5 11 13 14 13 13 15 14 13 11 10 1 2 5 5 16 14
22 23 24 23 24 26 27 27 29 31 31 27 5 7 6 6 6 8 8 5 6 6 6 12 10 10 8 4 6 6 7 14 8 3 12 5 11 2 5 11 14 5 6 2 3 5 13 8 6 13 4 9 2 8 8 9 5 1 8 7 7 7 8 10 13 14 15 19 20 18 9 12 17 16 7 12 16 14 14 16 11 7 7 3 12 12 9
22 23 24 24 25 26 27 27 28 31 33 28 7 8 6 7 8 7 13 8 9 10 7 10 11 12 11 2 10 11 14 6 12 5 2 8 14 12 3 5 7 14 4 3 3 5 4 4 4 6 9 9 8 6 11 11 9 10 8 7 5 6 9 12 12 14 12 15 17 14 15 12 9 11 15 17 14 15 17 15 12 11 3 13 12 12 13
23 23 23 24 25 25 25 26 27 30 34 23 7 10 8 8 9 7 13 10 11 10 10 10 8 9 9 7 9 7 6 7 7 6 5 5 4 17 5 7 7 14 17 2 4 7 3 1 5 7 11 10 10 10 9 5 11 7 9 7 8 7 6 10 12 9 11 12 15 15 12 10 11 10 14 16 13 13 13 14 14 7 9 14 10 11 11
22 23 22 23 24 24 24 25 25 28 29 10 11 7 9 8 7 7 9 11 7 10 9 7 9 8 5 7 1 5 6 5 4 7 5 9 6 6 3 4 10 9 12 18 7 7 4 3 4 9 10 7 8 10 2 10 2 9 6 7 7 10 8 8 10 10 12 13 14 15 16 15 15 14 14 9 9 11 10 9 9 12 9 9 12 9 7
21 21 21 22 22 22 23 22 24 26 26 9 9 9 9 8 8 8 7 8 9 10 8 9 7 8 4 4 6 6 6 8 8 6 7 6 4 5 5 7 8 4 5 4 12 8 7 7 9 10 10 11 12 11 11 9 10 3 7 6 9 7 7 7 7 8 7 9 8 15 19 19 15 10 9 11 12 12 11 9 14 17 7 5 5 7 11
20 20 20 21 21 21 22 22 22 24 17 11 10 10 10 11 11 10 8 8 8 9 9 7 10 6 8 3 9 7 9 9 9 5 2 12 9 6 6 8 8 6 6 3 11 10 9 11 11 12 14 15 15 12 11 12 9 11 7 7 7 4 7 9 4 7 5 9 13 11 8 10 4 9 11 14 16 14 9 5 16 25 10 10 13 12 14
19 19 19 20 20 20 21 21 21 21 18 12 10 8 9 10 8 7 7 8 9 11 7 5 7 7 7 9 8 9 9 10 10 8 8 3 8 9 11 3 7 2 4 9 12 10 13 14 16 16 17 14 14 14 14 13 11 9 11 10 6 8 8 9 3 6 6 8 11 8 11 5 10 2 4 9 13 18 5 5 15 19 18 10 20 18 15
18 18 19 19 19 19 19 20 20 20 18 14 11 8 9 11 7 7 7 7 8 9 9 12 12 9 10 9 9 10 12 11 12 11 11 9 6 8 5 4 6 8 10 11 12 12 11 11 11 12 14 13 15 15 15 14 13 10 10 10 9 8 8 5 6 1 5 6 5 9 5 4 5 4 5 8 6 8 9 4 10 14 16 5 16 16 14
17 18 18 18 18 17 17 18 19 20 20 17 11 9 7 9 8 7 6 6 8 9 12 12 9 14 14 12 11 13 12 12 11 10 10 7 11 7 5 4 6 7 9 9 11 9 9 7 9 8 10 9 8 9 11 13 13 12 13 11 9 11 6 6 8 5 5 2 5 7 4 8 4 6 2 4 2 4 5 4 8 15 9 9 11 11 13
16 16 17 17 17 16 17 18 18 17 18 21 12 9 6 7 7 6 6 6 8 12 9 8 12 14 15 13 12 10 9 10 9 6 10 9 7 7 3 5 6 9 10 9 8 6 8 7 9 8 6 7 6 6 7 9 7 12 11 11 9 6 7 2 6 3 6 6 6 2 6 7 8 18 5 4 4 3 7 6 3 7 10 14 12 11 14
15 15 15 16 16 16 16 16 16 16 16 19 12 9 6 7 6 6 6 6 7 6 5 12 12 13 11 10 11 12 8 6 8 9 9 7 7 12 3 10 10 11 11 9 7 8 7 9 9 8 7 6 6 7 6 9 8 9 10 10 13 11 7 5 5 3 3 5 7 4 4 6 9 4 9 7 1 2 2 4 5 7 16 13 14 14 14
15 15 14 15 15 15 15 14 15 15 15 16 11 10 6 7 6 7 7 6 6 9 13 11 12 11 8 8 11 10 9 7 8 7 7 8 10 11 14 12 11 12 12 8 7 8 9 9 8 8 7 4 6 6 7 10 8 4 8 11 12 12 9 9 9 8 5 5 4 5 4 2 5 4 6 12 13 7 4 5 3 5 16 14 13 13 14
14 14 14 14 13 14 14 14 15 15 15 15 12 10 10 5 7 7 6 6 7 7 1 13 12 8 8 8 10 10 9 8 7 8 8 9 10 9 13 10 9 11 10 9 6 8 9 8 9 3 7 8 10 11 8 5 5 6 10 10 8 8 7 5 9 6 7 7 7 4 2 5 5 3 7 8 3 4 6 1 0 9 13 12 13 13 10
13 13 13 13 12 13 13 14 14 15 14 15 14 11 5 7 6 6 6 6 6 8 11 16 11 9 9 9 8 9 8 11 9 8 8 7 3 14 14 9 8 7 8 8 6 7 7 8 7 2 4 3 7 4 10 4 3 6 10 9 9 7 7 5 7 9 8 6 7 4 1 6 6 5 8 3 3 7 5 2 3 9 12 12 11 11 11
13 12 13 12 12 12 13 13 13 13 15 13 12 9 10 12 2 5 6 7 6 10 13 13 7 10 10 11 9 8 10 9 8 8 7 9 12 16 8 6 3 8 7 6 9 6 6 5 6 6 8 3 1 3 4 10 4 6 8 7 5 5 7 9 7 6 7 6 6 5 6 3 9 7 9 4 5 5 2 6 9 11 4 13 5 11 13
12 12 13 13 12 12 12 12 12 13 13 13 12 9 10 8 2 5 5 6 7 9 7 2 12 15 12 12 11 11 10 9 10 8 9 9 10 9 5 5 7 6 5 6 7 6 5 5 4 4 2 7 2 2 3 7 10 2 7 6 9 5 5 6 5 5 7 5 5 5 4 5 6 5 1 8 6 5 7 13 5 10 1 12 8 11 10
13 12 12 11 11 11 11 11 11 11 12 11 13 9 8 8 6 5 6 6 7 8 9 17 16 16 17 16 15 13 12 12 11 9 8 9 7 7 8 10 9 4 3 5 5 5 3 5 2 1 4 8 6 6 6 6 7 5 7 6 6 6 6 3 6 6 5 4 2 5 2 3 6 13 13 11 9 5 7 8 9 6 4 5 8 12 8
13 13 13 13 12 12 10 11 10 10 10 9 9 7 8 9 9 9 9 8 8 10 12 14 14 14 15 17 16 11 8 7 7 7 7 7 8 6 7 6 5 6 4 6 6 5 6 6 5 3 3 2 3 8 9 5 7 6 6 4 8 9 9 6 5 4 9 7 9 3 8 5 12 11 10 13 9 8 9 11 8 4 4 7 6 7 13
13 13 13 13 13 11 10 9 10 10 10 5 6 7 7 8 8 8 8 8 8 10 11 10 10 7 3 6 4 3 6 8 9 7 6 5 7 7 5 6 8 6 5 7 6 6 6 6 6 3 5 2 3 6 7 7 7 8 10 7 5 5 11 8 6 4 5 3 5 4 6 7 11 7 8 7 7 8 9 9 10 9 7 9 11 8 9
13 12 12 13 12 12 10 10 9 9 7 7 9 9 9 9 7 5 6 7 7 7 7 9 11 10 10 5 5 8 7 6 5 6 7 7 9 9 10 10 10 8 9 9 7 7 5 6 6 5 7 2 2 4 2 4 6 9 9 7 7 4 4 6 4 4 6 5 7 9 8 3 3 11 8 9 12 9 7 8 9 11 10 13 14 14 12
13 13 12 12 12 11 10 9 9 8 8 7 6 7 7 7 8 8 6 6 7 6 8 7 8 9 6 8 8 10 12 9 7 8 8 9 9 11 12 10 8 6 7 7 7 7 6 7 5 6 6 2 2 4 3 4 6 6 7 8 6 7 5 4 6 7 8 7 4 4 12 4 4 4 3 2 1 9 12 10 11 13 14 17 17 13 15
14 14 13 12 12 12 11 10 9 9 8 7 8 7 8 8 8 7 6 6 8 6 7 8 6 10 14 19 17 14 13 12 12 11 12 12 12 10 10 10 9 7 7 7 6 7 6 7 7 7 5 4 5 3 2 5 6 6 6 7 9 8 8 6 8 8 7 8 4 3 3 2 2 8 8 6 7 8 8 10 11 12 14 16 17 19 16
15 14 13 12 12 12 12 10 9 8 7 5 9 9 8 9 8 8 7 5 5 8 11 11 11 14 17 20 18 15 13 13 12 11 11 11 12 11 11 11 9 8 7 7 7 6 7 8 8 7 7 3 3 7 6 3 4 7 8 6 4 6 7 4 7 8 5 8 11 8 4 3 4 4 4 4 6 6 7 6 9 11 13 14 16 16 14
15 15 13 12 11 11 11 9 8 8 5 6 8 9 9 9 9 9 9 7 6 7 8 10 12 12 9 8 11 11 10 9 8 8 10 11 12 12 11 11 10 9 9 8 8 8 7 8 7 7 5 3 2 3 4 5 6 8 6 6 7 10 10 13 13 12 11 11 14 4 2 4 4 6 4 2 9 7 4 2 7 9 10 11 12 13 13
15 14 13 12 11 11 10 10 8 7 5 6 6 6 7 4 4 2 7 7 5 4 6 8 9 6 8 11 13 13 13 12 11 12 13 11 10 10 10 10 10 10 9 8 7 8 6 7 7 8 10 6 8 1 3 4 7 7 9 10 10 11 13 10 9 11 9 7 9 8 9 8 6 12 14 11 9 7 4 10 9 10 9 11 11 8 10
14 13 12 11 11 10 11 11 8 5 3 6 5 5 6 5 4 6 11 8 4 3 6 7 10 11 14 12 14 18 18 16 14 13 13 12 10 11 10 9 9 9 9 9 9 9 8 9 7 8 8 9 7 7 7 5 4 4 8 7 6 9 12 12 10 9 9 7 7 7 7 8 13 12 13 14 19 15 9 6 6 4 7 7 8 7 4
15 13 11 11 10 10 11 11 8 8 6 6 8 5 5 3 2 7 12 10 4 4 6 8 8 7 7 8 7 9 13 13 13 11 10 8 10 9 10 10 9 9 9 9 8 7 9 9 9 9 8 4 5 8 7 7 7 4 9 10 5 8 5 6 9 9 8 9 11 9 8 11 11 12 11 13 15 20 18 16 13 6 11 9 9 8 9
15 12 11 10 10 10 10 11 9 8 7 7 16 19 16 14 14 12 11 7 5 5 4 6 8 6 5 6 13 12 7 7 9 8 9 8 10 7 10 9 10 10 8 9 9 9 6 8 8 10 9 6 7 6 8 9 6 7 12 8 7 3 4 5 8 9 11 10 12 7 10 12 10 10 12 12 9 13 16 15 15 9 12 18 18 19 16
16 14 11 11 11 10 10 11 10 7 8 8 8 9 9 11 12 14 7 4 4 4 4 5 6 8 8 8 11 9 9 8 7 7 9 8 8 8 9 8 9 9 9 11 8 8 9 8 9 8 7 9 9 8 10 10 11 13 13 11 1 3 4 5 5 8 11 15 8 6 4 4 5 9 11 10 10 11 14 20 16 16 17 18 17 19 17
14 13 11 10 10 9 9 9 7 7 7 7 8 8 2 4 6 7 7 4 5 5 5 7 5 8 8 8 8 8 8 8 9 7 9 6 9 9 7 9 7 9 8 8 10 10 8 8 7 9 11 8 10 11 9 9 12 11 7 5 4 4 3 5 9 8 8 8 12 10 6 9 9 14 12 12 12 14 13 16 21 19 17 16 18 18 17
13 12 11 11 9 8 7 6 5 6 6 8 7 6 13 10 8 6 6 5 6 6 6 6 6 10 7 8 7 2 1 9 8 8 7 6 8 9 8 7 10 10 6 8 10 9 11 7 8 10 8 10 10 9 8 9 10 10 9 6 4 4 6 6 2 6 10 15 15 4 6 11 11 10 7 12 12 12 16 15 16 16 15 16 15 13 12
12 12 11 9 7 5 5 5 4 7 5 2 6 10 8 6 4 4 5 7 7 6 6 6 8 9 8 8 6 7 7 8 5 8 6 8 8 6 8 8 10 5 8 10 10 10 9 8 10 10 10 11 9 8 7 7 9 9 7 5 6 5 3 6 5 11 13 18 13 10 9 3 9 12 12 8 9 13 12 12 13 13 15 16 15 13 14
10 12 8 7 5 6 4 4 5 7 8 7 7 4 4 4 5 5 4 6 7 7 7 7 11 9 9 10 12 6 7 7 8 7 7 7 7 7 6 6 6 6 11 9 9 8 7 8 9 11 11 9 7 9 10 9 9 8 8 4 4 7 4 3 10 17 19 12 6 7 12 8 7 11 16 13 13 10 7 6 6 10 10 12 11 12 14
11 8 6 5 4 4 4 4 7 9 7 4 3 3 4 3 5 4 5 6 4 8 8 10 11 9 10 11 11 9 10 10 10 6 7 5 5 4 6 9 6 6 8 7 8 10 10 10 9 9 12 10 10 11 10 7 8 7 5 3 5 10 4 8 14 14 8 7 9 12 13 9 6 1 4 5 4 7 10 11 11 12 9 10 12 12 14
7 7 6 5 6 2 3 6 13 7 4 5 4 4 4 4 6 7 5 5 7 7 5 9 10 11 12 13 11 10 7 9 9 8 6 6 2 6 4 6 4 6 10 10 6 8 9 10 8 10 11 10 10 8 10 10 8 7 5 6 2 6 9 6 7 8 7 11 18 11 13 15 5 5 5 6 8 10 14 9 10 11 11 11 13 11 11
7 5 4 5 4 3 2 4 4 3 3 5 3 3 3 4 6 4 4 8 8 6 7 9 8 10 11 13 12 13 7 8 7 8 7 8 2 5 6 7 4 6 8 9 6 7 7 8 9 11 10 8 8 9 11 9 7 6 7 8 5 4 6 2 4 11 9 8 13 14 13 15 15 11 8 13 13 10 9 11 12 11 13 12 12 11 12
7 5 5 6 5 5 5 2 2 3 3 1 2 4 5 5 3 5 6 7 8 5 9 9 11 11 11 11 11 10 9 7 7 7 5 8 4 6 6 5 4 6 7 5 5 7 7 10 9 10 6 6 8 8 11 9 9 11 12 9 3 2 2 2 4 8 13 9 12 13 15 15 17 18 17 17 9 5 6 8 11 13 13 11 12 12 12
11 8 8 6 3 2 1 3 3 1 2 4 3 2 4 5 7 7 7 6 5 7 6 7 9 7 10 9 11 10 7 5 7 6 5 7 1 3 5 6 5 8 8 7 7 8 10 10 10 8 6 7 9 8 7 9 9 10 6 2 2 3 4 2 3 7 4 10 13 16 15 16 15 14 11 8 8 8 9 9 10 11 11 11 11 11 11
8 4 3 2 3 2 2 4 2 3 3 3 5 6 8 9 8 8 7 8 8 9 9 9 8 9 9 8 8 6 8 7 6 5 6 5 5 5 4 7 9 5 5 7 7 11 10 7 8 6 4 6 10 12 12 10 8 9 6 5 2 1 2 4 3 4 12 8 5 8 14 15 13 11 8 8 11 12 10 10 10 11 11 12 12 11 10
7 4 2 3 2 1 2 2 3 4 6 9 8 9 10 12 9 9 9 3 5 8 7 10 7 8 8 2 5 6 5 5 4 7 6 5 7 6 6 6 5 4 7 8 7 8 8 10 5 6 6 7 5 7 8 10 10 9 6 6 5 6 6 3 3 9 13 9 7 9 11 11 12 11 9 9 9 9 11 11 12 12 12 12 11 11 10
6 4 5 4 3 4 2 2 3 6 7 7 10 10 11 12 9 8 7 6 7 8 9 8 9 7 8 5 7 4 6 6 6 7 6 5 7 8 6 4 4 6 7 8 10 11 10 9 7 6 8 9 7 6 8 7 9 11 10 9 8 8 6 4 3 4 6 7 7 4 7 10 12 12 10 8 8 10 10 11 11 11 11 12 12 12 11
4 2 2 2 2 3 4 5 7 8 7 9 11 11 11 9 10 8 6 6 8 6 6 4 6 6 8 7 6 6 6 4 7 5 6 8 8 4 3 6 9 7 9 10 10 9 8 9 9 5 5 9 7 8 7 5 6 7 7 7 7 7 5 4 7 7 5 2 1 3 2 7 11 10 10 9 8 8 11 12 13 12 12 12 11 12 11
3 4 3 2 4 4 10 10 7 8 10 10 9 8 9 8 10 8 7 6 6 5 7 5 7 4 7 6 6 7 5 6 7 8 6 6 4 7 6 7 7 7 7 9 9 7 8 8 5 6 4 5 8 9 8 6 7 8 7 8 9 7 7 5 5 7 5 4 2 2 5 6 6 10 9 11 11 11 11 11 11 12 11 11 12 12 12
3 4 3 4 5 6 9 10 10 11 10 8 7 8 12 14 12 8 7 6 7 7 6 6 5 4 6 5 8 7 6 3 8 7 6 7 8 7 7 9 10 12 9 8 9 7 8 4 6 10 12 8 6 10 8 7 7 8 10 12 10 9 9 7 4 4 7 4 5 3 2 6 8 3 9 9 11 10 12 12 12 11 12 13 14 13 11
3 3 5 4 5 8 5 5 9 12 9 7 7 12 13 11 9 7 5 7 7 6 5 6 4 5 3 2 5 6 7 6 6 4 8 11 9 8 8 12 10 9 8 8 9 7 6 3 6 8 9 10 13 9 5 11 10 8 9 9 9 7 7 6 6 7 8 5 4 4 2 2 5 10 10 14 12 12 12 12 12 12 12 12 13 12 12
2 3 6 7 9 4 3 7 11 12 11 11 11 8 7 9 8 6 5 6 6 8 7 7 6 6 4 6 4 3 4 5 6 9 9 9 7 9 10 11 9 8 8 7 6 7 6 2 3 4 6 10 9 9 12 11 6 11 10 10 9 8 6 9 8 6 10 8 5 1 4 7 11 16 11 11 12 13 13 12 11 11 12 12 12 12 12
2 4 8 9 10 11 11 7 4 6 10 10 9 9 10 10 6 6 4 5 7 9 9 7 6 5 4 8 8 5 3 4 8 7 10 9 8 10 11 10 8 7 7 8 6 4 8 2 4 4 6 6 6 8 8 9 10 7 6 10 11 11 8 8 7 9 8 9 11 12 9 15 20 16 10 13 15 14 14 12 11 12 12 11 11 12 12
Wind_Direction
345 342 342 341 340 341 341 342 344 349 349 357 348 321 288 240 298 126 182 159 194 225 262 273 256 259 225 227 246 271 209 267 10 287 135 214 299 169 222 238 285 202 356 335 165 212 190 229 242 161 214 201 200 103 162 145 227 182 217 205 222 184 254 252 265 278 286 278 188 211 199 228 236 243 265 262 242 251 262 256 224 255 188 140 144 123 204
346 344 343 342 341 341 341 341 343 348 4 348 321 311 315 326 303 270 149 181 200 248 252 248 289 299 306 279 286 87 298 288 221 252 162 259 207 310 287 185 355 302 179 293 336 171 228 176 237 170 198 108 98 132 133 147 245 180 198 231 163 223 186 258 272 258 253 275 281 239 192 210 241 250 191 227 257 238 232 292 297 259 157 223 98 145 152
345 345 345 344 342 341 341 341 338 344 352 351 322 318 316 298 269 264 183 187 209 237 247 295 226 327 309 285 316 344 333 302 311 302 251 246 250 182 289 340 163 286 48 306 281 349 292 200 230 335 202 112 206 125 251 157 251 202 196 213 141 222 174 190 236 243 232 234 235 221 185 194 232 241 272 268 298 330 327 271 75 275 23 357 76 70 79
345 346 346 346 345 343 342 340 338 337 347 347 329 304 290 289 314 218 199 188 210 234 255 268 286 215 245 251 68 281 267 267 267 252 279 284 35 109 246 231 270 143 174 252 213 248 226 292 230 232 230 183 151 123 203 180 238 47 30 301 265 219 235 201 217 249 264 270 299 339 220 149 223 232 242 263 256 249 244 253 249 282 77 79 113 139 149
347 348 348 348 348 346 344 342 338 336 335 352 314 277 238 304 279 351 330 311 221 254 234 244 233 248 331 331 321 260 35 325 290 146 9 299 359 3 318 337 52 336 35 360 334 351 257 210 305 224 238 340 70 57 259 203 241 47 285 244 295 247 243 243 227 235 262 273 236 249 214 235 216 218 230 227 246 257 261 257 274 213 142 118 141 151 160
349 349 350 350 349 348 347 344 341 336 332 337 307 300 309 299 356 335 31 306 300 281 0 335 310 322 332 347 340 250 108 282 298 302 184 266 354 251 254 342 357 278 139 163 240 5 355 343 11 313 183 316 210 179 182 238 132 30 252 222 241 272 246 234 242 234 234 250 264 274 253 252 290 297 259 223 209 228 242 257 257 264 264 177 152 164 137
349 350 350 350 351 350 348 346 343 339 333 331 275 343 348 351 335 310 9 323 315 324 306 286 284 291 291 266 209 249 123 293 278 212 289 46 325 326 320 68 327 284 217 167 122 66 307 13 324 17 338 306 317 271 161 210 200 193 251 232 215 249 263 271 244 250 226 236 250 252 290 297 223 237 269 287 277 217 218 232 227 216 216 130 145 147 165
348 350 350 351 352 352 350 348 347 342 337 325 8 43 348 14 348 332 335 320 293 284 274 281 297 277 231 237 249 261 280 185 250 310 315 75 235 280 1 343 303 356 357 166 88 71 40 99 331 1 321 330 332 320 325 318 181 192 210 243 180 232 222 248 273 259 247 242 242 246 239 251 265 242 241 242 258 290 300 315 319 291 197 159 148 164 176
347 349 351 351 353 353 351 349 350 346 341 351 359 35 20 339 330 329 314 317 317 323 305 282 264 264 227 233 54 304 256 299 355 285 303 130 172 296 270 289 315 43 6 358 0 79 74 262 266 286 283 293 242 274 290 309 244 170 227 216 190 184 249 253 249 255 253 219 225 231 230 228 237 265 273 274 281 270 248 254 241 252 257 252 214 174 109
346 348 350 351 353 354 352 351 351 352 336 355 349 9 6 345 338 321 306 291 297 287 286 272 271 250 346 349 348 303 351 310 316 315 336 340 119 29 340 333 311 4 76 355 315 358 337 319 303 289 289 284 292 279 277 275 286 190 229 206 237 185 241 238 233 253 274 291 276 247 224 218 228 233 264 281 276 286 284 263 307 315 294 278 270 124 104
345 347 349 351 353 353 352 352 351 354 354 9 350 342 2 358 340 329 312 296 284 273 264 275 269 45 307 10 325 318 306 322 309 329 5 324 328 2 334 321 309 10 344 3 298 301 302 286 277 262 259 262 267 264 254 262 269 277 258 192 237 200 231 252 268 270 266 255 252 256 263 261 268 28 25 15 334 259 235 28 20 355 346 92 86 103 121
343 345 345 349 352 353 352 351 349 352 358 343 323 314 5 346 327 317 321 310 297 290 286 262 1 4 314 341 321 319 300 312 322 315 284 273 291 293 282 305 6 228 309 308 295 305 288 268 259 251 252 262 264 265 270 264 240 232 266 263 199 214 202 253 258 241 253 288 274 259 256 237 32 318 353 1 348 1 323 67 52 39 23 89 107 124 125
341 342 345 347 350 353 351 350 348 347 354 346 332 330 358 359 332 334 325 306 290 317 331 333 338 351 5 342 328 321 327 310 304 294 270 258 272 294 301 79 233 314 333 298 302 289 283 290 292 294 287 260 241 244 249 244 243 228 223 250 258 213 212 248 247 234 47 299 262 249 251 34 274 42 344 11 349 0 1 33 91 76 103 69 97 105 113
337 341 342 345 347 351 352 350 347 345 349 350 330 317 354 3 359 345 354 332 305 315 326 302 354 1 346 338 329 322 314 297 279 266 278 288 267 250 275 4 1 327 293 303 285 282 278 271 259 250 239 245 264 265 246 250 237 221 212 221 236 274 259 224 244 177 228 241 302 291 334 237 198 259 182 42 353 37 24 337 88 90 95 105 102 96 89
334 337 340 342 343 349 352 349 345 345 350 347 326 320 1 17 1 337 319 309 305 308 307 358 348 337 332 325 329 324 313 326 321 302 317 302 276 246 297 7 350 316 311 293 290 281 286 294 284 267 277 267 253 264 277 254 229 235 217 213 215 228 263 353 302 250 248 201 225 205 353 329 350 335 51 100 130 124 99 67 69 67 79 103 133 146 143
330 333 336 339 341 345 349 346 342 345 352 347 329 331 337 40 352 331 324 312 320 290 49 354 347 329 325 315 314 307 334 329 348 331 306 281 264 273 270 15 335 319 297 284 276 284 282 285 273 260 245 252 329 306 279 304 260 193 229 226 211 206 212 256 234 270 188 290 267 195 220 257 224 359 330 137 96 84 100 288 149 121 115 127 138 141 151
327 330 333 335 338 342 344 345 344 346 348 354 336 321 321 45 19 345 326 311 287 278 305 337 350 326 323 343 348 3 1 327 349 328 325 304 324 336 344 341 320 309 312 304 275 266 265 254 262 270 265 240 159 258 256 246 299 282 212 221 247 236 191 206 214 246 267 233 231 285 247 188 86 147 38 44 10 359 58 251 144 159 137 142 159 159 149
322 326 329 331 334 337 338 342 345 343 345 346 333 319 297 344 22 337 319 311 308 291 114 21 345 344 348 353 324 326 323 322 311 335 290 298 295 17 334 327 317 317 290 263 283 284 277 277 275 321 317 357 338 303 270 356 313 2 334 341 265 235 237 225 261 249 232 201 260 257 263 155 174 188 98 127 185 232 208 308 346 116 143 165 169 154 142
319 320 327 329 334 334 332 337 340 341 343 347 336 312 291 23 19 356 320 310 301 281 315 334 321 310 337 325 307 320 325 325 303 296 312 285 42 338 311 307 315 309 337 309 310 284 288 274 273 234 251 336 310 330 344 296 350 342 330 321 330 258 257 227 247 254 262 245 230 214 355 107 132 127 108 145 181 195 98 46 355 166 173 165 161 149 147
314 315 319 325 326 324 329 332 335 339 339 349 339 320 307 300 32 353 345 331 328 297 299 293 334 342 341 329 324 328 338 318 358 339 338 314 354 338 320 257 107 348 306 317 275 269 278 306 10 339 303 292 121 336 296 307 327 257 265 323 277 35 334 301 260 268 258 266 261 165 205 113 261 128 125 143 236 88 154 63 349 322 242 116 174 172 159
300 307 311 314 322 321 326 330 331 333 336 343 339 319 311 294 24 358 354 337 319 308 286 75 355 325 315 302 303 307 303 305 323 323 334 315 337 323 317 9 342 321 328 352 318 325 335 311 30 355 291 279 52 253 328 341 303 318 24 24 311 3 291 337 356 11 301 280 307 319 56 146 191 159 217 77 78 167 109 115 189 265 217 146 203 148 141
295 296 304 306 305 321 317 321 327 323 335 345 335 310 298 324 351 344 352 309 284 267 280 303 301 290 283 276 271 269 272 283 292 306 308 309 312 313 305 289 295 359 13 330 316 282 280 336 266 245 328 302 331 312 14 305 275 286 296 305 266 25 349 48 332 336 340 345 24 334 12 185 125 94 104 118 138 159 125 132 176 195 157 124 114 119 108
296 294 295 295 297 304 318 311 317 323 321 346 331 315 314 322 330 337 319 299 280 270 270 271 271 269 264 259 252 260 275 275 284 274 263 280 292 283 287 326 2 345 345 35 351 324 330 324 305 333 287 280 339 320 287 279 295 300 293 333 305 312 317 352 281 304 334 286 141 33 305 43 96 104 105 120 153 168 156 160 166 203 98 112 107 108 135
293 294 291 292 296 297 305 312 303 313 324 334 329 308 303 310 307 314 315 294 286 302 291 252 244 249 294 10 58 160 222 232 235 256 280 279 275 285 242 85 350 313 357 10 359 316 328 308 294 313 280 290 258 246 263 263 256 322 318 266 268 329 10 358 332 11 333 308 6 236 221 128 130 128 130 138 176 193 175 180 179 152 148 128 133 142 144
287 290 290 287 285 288 289 298 309 299 311 325 309 289 280 274 278 291 316 320 328 331 308 319 297 293 319 337 285 264 258 271 270 236 235 230 245 268 281 342 333 313 318 330 312 295 281 287 286 256 265 122 271 269 86 307 303 346 311 301 290 299 9 294 297 275 251 279 13 346 339 31 133 144 159 187 201 180 168 186 154 146 156 131 135 138 117
279 281 284 283 279 278 284 281 283 294 296 310 318 295 297 291 309 310 297 281 282 280 278 280 288 303 331 325 303 333 335 320 301 287 263 253 247 256 275 288 292 301 290 300 299 283 290 282 293 282 275 254 167 276 237 176 265 275 277 293 325 311 321 298 331 310 293 267 285 21 309 195 107 204 98 81 149 153 162 154 142 147 148 136 133 135 129
270 272 273 275 274 268 270 279 282 285 296 293 283 291 283 289 284 280 288 308 310 275 223 248 290 307 342 325 307 293 280 272 266 259 260 261 263 260 260 266 273 277 274 271 263 273 268 268 271 270 250 257 164 228 244 230 238 269 274 277 313 300 268 300 308 294 273 273 264 130 242 188 204 220 157 153 120 135 135 138 146 141 139 141 145 140 151
268 268 268 268 270 268 259 264 274 278 277 287 278 269 267 265 265 266 275 269 273 289 311 310 303 309 318 292 279 263 251 246 242 251 256 254 247 246 257 264 267 271 270 265 264 244 241 241 241 243 249 286 262 230 211 9 317 260 253 255 243 256 279 303 267 261 273 318 280 206 202 98 342 237 165 202 131 100 93 109 140 147 148 150 143 140 138
267 266 263 265 266 261 254 253 264 263 282 298 280 279 271 255 261 258 253 241 232 271 284 291 290 280 271 303 321 304 300 296 285 265 255 244 243 244 247 247 249 254 256 258 267 276 283 280 290 288 282 46 274 346 2 266 242 251 254 266 267 279 264 234 244 259 282 290 296 148 67 356 197 125 37 342 75 84 109 143 150 158 142 136 138 131 138
264 262 262 260 256 254 250 244 242 269 280 274 278 277 273 236 166 11 358 323 286 291 292 294 296 289 317 308 290 284 283 277 267 255 251 253 250 245 237 241 244 241 252 261 268 263 261 270 257 250 251 237 252 212 224 235 247 250 246 242 244 260 262 255 258 264 264 298 338 346 143 202 200 137 159 155 126 104 234 173 145 153 153 149 145 137 147
255 256 257 254 251 247 244 241 235 230 241 260 264 257 254 186 48 360 359 338 1 311 280 274 276 301 289 264 255 255 252 249 250 254 253 246 247 246 244 243 241 237 240 232 237 246 259 255 260 262 272 264 258 245 246 227 265 287 293 279 259 252 261 264 261 250 281 297 314 331 287 191 167 154 152 150 137 145 224 132 115 142 134 142 126 112 175
249 249 245 243 243 240 238 234 214 204 241 252 233 258 15 3 326 310 317 317 329 265 259 280 285 269 288 270 253 238 230 238 238 235 238 242 244 228 240 237 243 226 233 248 249 247 236 244 253 262 263 261 255 250 242 230 223 242 273 263 249 249 264 313 310 316 275 240 247 225 192 147 172 165 151 153 156 165 160 148 149 181 152 165 153 148 157
245 240 236 231 233 234 233 230 215 218 242 297 322 305 283 247 241 261 277 274 256 259 278 280 272 299 279 311 326 301 260 242 235 225 243 209 236 229 237 220 231 245 223 237 233 247 247 249 241 243 235 247 253 243 249 246 232 196 222 223 255 353 28 313 306 301 289 233 209 212 180 174 164 143 146 153 169 153 156 149 134 162 188 169 161 159 162
236 237 229 224 227 231 228 225 218 223 264 285 261 246 251 211 201 218 249 287 279 280 276 264 274 262 267 287 282 285 268 246 235 210 240 210 223 225 234 225 214 231 218 229 229 233 231 248 252 268 272 228 214 236 238 231 232 224 224 234 62 45 5 325 321 315 310 303 258 224 191 158 126 112 130 154 174 168 171 137 136 174 191 166 161 147 142
229 227 223 215 221 224 220 206 199 209 237 242 252 253 1 136 174 158 201 260 273 229 220 236 262 284 287 282 273 274 240 245 250 218 240 220 190 228 216 239 209 221 212 208 237 231 241 229 223 234 237 243 228 224 226 231 224 234 245 228 120 125 46 356 328 314 309 298 289 240 211 172 163 139 151 168 182 178 176 145 161 181 171 160 146 141 142
221 218 216 215 216 211 212 191 214 208 229 237 256 108 123 127 135 182 218 238 260 285 275 274 246 244 257 277 275 313 42 251 242 251 231 254 209 196 240 229 240 222 233 217 229 221 231 215 230 239 232 234 231 230 224 211 233 229 227 210 169 158 158 152 287 318 300 273 276 132 144 197 170 134 152 165 188 197 170 166 171 176 155 137 137 138 135
216 214 209 206 205 211 216 208 176 216 237 321 107 128 142 167 213 229 226 229 224 230 254 268 266 260 256 267 276 284 300 263 202 238 256 244 245 182 206 223 240 239 211 221 230 233 227 217 238 239 226 230 230 230 236 225 227 223 213 205 157 160 129 79 239 231 221 248 225 158 157 121 95 93 71 351 272 174 174 178 163 148 141 138 138 140 131
201 199 195 188 196 210 208 189 197 195 131 119 148 189 189 218 224 210 198 225 223 212 222 234 251 265 284 282 264 314 309 281 359 320 238 215 243 238 223 236 238 218 240 235 228 213 242 221 220 235 242 241 253 251 233 215 219 217 224 220 133 128 108 59 250 200 196 193 178 141 124 157 143 137 140 170 232 192 189 159 134 132 138 139 133 124 129
195 193 187 187 193 208 208 200 197 168 190 228 220 256 227 215 234 221 209 203 193 215 218 232 239 235 252 261 271 283 285 317 304 301 293 30 325 255 216 236 212 230 254 252 226 175 223 218 234 226 235 226 227 232 248 219 211 210 207 176 211 130 136 196 243 243 189 132 97 75 69 36 354 75 63 137 227 173 213 168 164 142 132 122 118 125 127
182 182 180 170 208 176 335 135 150 165 186 209 204 237 238 197 222 229 197 216 217 225 199 227 226 238 234 243 258 266 257 254 259 267 293 300 234 287 343 310 300 237 232 233 226 170 225 226 211 226 236 218 220 212 228 215 201 197 223 248 250 117 163 218 258 273 137 120 111 107 100 103 69 2 4 289 237 193 187 162 134 123 122 122 125 129 123
189 160 152 181 155 131 131 135 140 170 177 202 195 219 248 222 213 248 227 232 232 229 205 240 212 215 218 231 239 253 247 262 274 290 289 276 337 303 270 254 348 295 245 233 223 227 211 235 236 229 226 202 213 198 211 208 181 210 216 240 206 169 134 159 332 320 314 120 118 131 141 142 144 162 186 242 232 200 171 154 140 132 122 124 123 119 122
167 156 114 98 101 104 117 128 187 160 188 218 256 212 207 240 207 223 236 242 223 230 226 216 233 229 223 208 225 233 244 251 276 259 250 258 209 239 261 266 240 255 255 249 245 236 233 232 228 236 231 196 199 207 197 192 175 198 212 229 193 76 347 117 221 182 229 218 142 143 150 166 174 177 191 195 194 166 118 118 123 127 126 120 116 127 131
96 105 105 114 114 131 149 153 200 190 169 184 183 240 210 224 213 225 216 223 257 252 246 215 232 217 248 224 209 203 244 194 224 227 245 253 206 227 258 248 243 238 253 290 258 239 225 231 234 231 225 211 190 210 204 212 183 183 188 104 57 21 354 339 273 291 188 241 162 156 168 175 188 196 190 166 153 129 118 120 121 130 131 125 127 130 135
118 112 118 116 126 129 180 187 175 174 193 200 179 200 193 214 211 202 225 220 211 224 237 245 226 221 218 195 248 190 202 227 240 265 243 237 252 236 227 242 234 264 307 271 272 252 250 245 237 231 234 231 205 192 199 197 169 163 166 172 146 328 253 287 132 290 279 240 204 159 152 166 166 172 168 168 159 141 137 136 133 133 129 126 133 138 136
137 139 80 66 64 199 183 167 194 221 210 195 206 215 212 221 223 218 234 221 235 244 218 232 241 231 252 240 241 232 224 234 161 230 235 223 238 229 240 245 274 242 230 251 258 266 261 260 231 208 226 259 246 189 182 170 163 156 164 171 191 210 223 225 219 171 214 229 212 178 163 152 152 159 161 157 153 146 143 143 140 138 141 138 141 138 139
144 136 123 121 132 184 203 192 161 208 220 210 209 213 222 228 233 233 232 214 233 235 234 224 221 229 245 220 238 223 185 218 228 214 230 224 237 233 221 257 286 264 250 239 239 244 246 256 255 230 197 225 230 196 182 165 157 156 165 182 184 199 208 198 179 231 233 221 208 202 158 148 150 157 155 144 127 139 140 136 142 143 141 144 146 143 143
111 151 199 151 139 201 219 218 200 210 209 212 216 224 232 239 249 252 245 229 238 246 267 267 264 252 243 225 222 229 245 216 228 212 221 230 226 239 234 237 228 218 237 238 240 239 243 255 265 257 200 204 169 153 153 163 170 175 177 181 198 193 202 194 169 198 225 226 16 358 191 160 153 153 146 140 135 131 140 147 147 147 149 151 144 143 145
150 178 180 193 202 184 208 221 223 224 224 225 228 253 276 272 254 237 233 233 246 236 240 231 239 235 246 252 275 259 238 220 231 224 216 242 209 236 222 223 238 238 229 239 239 240 248 259 284 298 260 205 181 187 175 175 193 197 197 211 207 208 215 207 197 174 157 125 125 65 344 313 174 154 154 150 154 152 150 151 152 150 148 144 144 148 147
175 195 197 217 217 206 217 219 225 236 230 239 220 215 232 236 237 235 224 220 231 237 237 243 233 223 254 239 227 227 230 229 238 216 201 220 231 216 207 223 219 228 224 230 240 243 249 273 10 0 360 330 236 193 173 191 212 214 208 218 226 215 214 202 191 164 133 130 119 98 295 304 313 211 148 147 154 158 153 155 153 153 151 148 149 150 148
204 234 241 256 245 222 226 247 234 234 231 225 242 239 229 234 236 218 194 215 216 232 218 222 214 250 248 261 238 226 245 208 226 234 228 221 221 224 224 228 223 231 229 214 228 240 245 8 346 344 358 22 8 339 220 183 196 209 206 223 236 221 202 204 180 177 149 149 135 123 117 326 301 278 174 166 162 153 155 158 157 153 149 148 150 151 150
279 261 253 241 251 264 222 223 226 234 230 229 232 252 267 242 228 228 190 235 223 222 211 221 206 218 232 230 250 242 221 195 224 231 231 227 222 233 231 233 228 224 237 245 227 219 208 145 322 340 10 6 357 8 349 319 214 183 199 218 231 245 215 207 208 145 118 132 140 76 242 223 221 234 208 161 148 152 155 156 156 153 149 150 155 152 151
230 231 240 239 239 242 255 273 276 276 271 253 240 226 229 248 226 235 225 239 229 224 222 213 213 219 216 224 222 226 292 240 218 216 231 233 224 232 232 236 241 235 238 244 231 203 229 207 65 33 5 360 354 352 343 336 354 345 271 230 221 220 217 226 193 134 140 145 149 155 216 232 212 197 166 150 151 153 155 158 158 152 147 148 152 151 149